Vorticity
nan nan nan nan nan nan nan nan nan nan nan nan nan nan nan nan nan nan nan nan nan nan nan nan nan nan nan nan nan nan nan nan nan nan nan nan nan nan nan nan nan nan nan
nan 10 7 8 11 10 10 10 9 10 11 12 12 10 10 9 9 9 7 8 8 6 6 7 7 8 6 6 7 8 10 11 9 7 5 6 6 7 8 7 6 7 nan
nan 13 12 12 10 12 11 10 8 9 9 10 14 16 14 14 12 11 9 8 9 8 9 8 8 6 6 6 6 8 9 9 11 11 6 6 8 8 9 8 9 10 nan
nan 10 9 10 12 12 14 16 14 13 12 9 8 13 14 12 11 17 18 12 10 9 9 8 12 15 19 15 11 12 9 8 8 7 9 9 9 9 11 12 14 15 nan
nan 9 10 9 11 10 10 12 13 12 14 15 11 8 8 7 7 10 12 20 22 16 13 5 6 14 14 22 26 22 21 16 11 11 10 11 14 15 12 12 13 13 nan
nan 10 10 11 11 11 11 10 10 10 11 10 9 8 9 5 8 17 19 13 13 15 15 16 7 3 6 12 16 14 22 24 19 13 14 13 14 13 11 10 12 12 nan
nan 11 11 11 11 10 10 11 10 10 9 8 9 8 7 5 15 22 21 13 10 10 10 11 10 5 7 13 8 0 7 15 19 19 16 13 10 9 10 10 11 9 nan
nan 12 11 11 11 11 10 9 9 9 10 9 8 9 7 9 17 16 11 10 8 9 11 13 10 9 13 20 12 4 4 6 12 21 17 15 14 16 19 13 11 13 nan
nan 10 13 12 12 9 11 10 10 10 8 8 9 9 10 6 14 18 9 7 8 6 7 10 14 9 15 28 18 8 8 4 6 10 7 6 7 12 23 20 12 15 nan
nan 11 11 11 11 11 11 9 10 10 10 9 7 7 11 8 12 22 15 11 7 6 6 4 8 14 15 20 18 10 8 8 7 4 4 3 2 1 8 15 14 14 nan
nan 11 8 11 10 10 9 12 11 10 8 9 9 7 3 7 8 16 23 19 12 9 8 7 2 9 11 13 15 17 14 11 7 8 9 9 8 7 5 8 11 10 nan
nan 10 9 12 12 11 10 11 10 9 9 7 6 8 6 3 3 9 14 18 17 12 9 12 10 4 6 9 10 12 15 15 12 10 8 8 10 10 10 10 9 10 nan
nan 9 9 9 10 11 12 12 10 8 9 8 9 8 7 8 5 1 2 5 9 11 9 8 6 3 5 3 6 7 9 12 10 9 9 10 10 9 9 12 13 10 nan
nan 11 10 9 10 12 11 10 11 12 11 11 11 9 8 9 10 8 7 4 5 9 10 7 6 5 4 5 3 6 10 10 10 10 10 9 10 11 11 11 10 11 nan
nan 7 7 6 7 8 11 13 15 15 19 19 15 13 11 12 12 15 15 14 12 12 10 10 10 9 8 9 9 8 11 10 11 11 11 12 10 10 11 11 11 11 nan
nan 11 11 11 8 6 6 4 7 11 14 16 20 18 13 11 11 10 11 15 18 16 11 10 10 10 10 11 10 10 9 10 11 11 10 11 11 10 11 10 11 13 nan
nan 13 10 10 12 12 11 8 -0 -1 2 3 7 12 15 14 11 8 6 7 12 15 12 11 10 10 10 10 11 11 10 9 11 11 10 9 11 11 11 11 10 8 nan
nan 10 13 11 10 10 11 13 11 7 4 1 2 3 3 10 11 17 17 6 6 8 11 11 11 11 10 10 11 10 10 10 11 11 10 10 11 12 10 10 11 10 nan
nan 10 10 10 11 11 10 10 11 12 13 13 7 6 1 1 3 6 14 14 11 10 10 10 11 11 11 11 10 11 11 10 11 10 10 11 11 11 11 10 9 10 nan
nan 11 14 12 10 10 11 11 11 11 10 10 10 8 9 10 7 6 7 11 11 11 11 11 10 11 10 11 12 11 10 11 10 12 12 10 11 11 11 11 11 11 nan
nan 10 10 12 11 11 12 12 12 12 11 9 9 9 13 13 10 10 10 10 11 11 11 11 11 10 10 11 10 12 12 11 11 10 10 11 12 12 11 11 11 9 nan
nan 11 10 10 10 12 13 12 11 11 12 13 10 7 13 14 12 10 10 10 10 9 11 12 12 11 11 10 11 12 12 11 10 11 11 10 11 12 11 12 12 11 nan
nan 12 13 12 12 10 8 10 13 13 10 10 11 12 11 11 10 11 11 10 12 11 11 10 11 10 10 11 13 13 11 10 10 11 11 11 11 11 10 11 11 12 nan
nan 13 13 10 9 11 13 12 9 9 11 12 12 11 10 11 11 11 11 10 10 11 11 10 12 11 11 9 12 13 11 10 10 10 11 11 10 11 11 11 11 10 nan
nan 12 11 10 12 13 11 9 11 11 12 11 11 11 11 11 11 11 12 11 10 11 10 11 10 12 9 13 16 10 8 10 11 10 11 10 12 13 13 9 10 12 nan
nan nan nan nan nan nan nan nan nan nan nan nan nan nan nan nan nan nan nan nan nan nan nan nan nan nan nan nan nan nan nan nan nan nan nan nan nan nan nan nan nan nan nan
CAPE
575 360 281 112 78 161 163 74 13 40 28 14 5 2 1 0 0 0 0 0 0 1 4 3 6 13 8 1 0 0 0 0 0 1 0 1 4 23 19 13 20 26 18
235 122 95 83 86 91 45 18 19 16 16 13 21 8 1 1 0 0 0 0 0 0 0 0 0 0 0 0 0 0 0 0 0 0 0 0 0 0 0 3 10 12 8
37 61 46 31 28 36 22 15 25 13 12 3 7 7 14 3 1 1 0 0 0 0 0 0 0 0 0 0 1 1 0 1 5 4 0 0 0 0 0 0 0 0 0
0 0 1 1 0 0 1 8 22 12 8 4 9 0 0 0 0 0 1 2 2 0 0 0 0 0 0 0 0 1 0 3 0 0 0 0 0 0 0 0 0 0 0
1 2 5 2 0 0 0 0 0 0 0 0 0 0 0 0 0 0 0 0 5 2 2 1 0 1 0 0 0 0 1 3 5 7 5 1 2 5 20 1 4 1 1
0 1 1 0 1 1 1 1 0 1 1 0 0 0 0 0 0 0 0 0 0 0 0 1 0 0 0 0 1 1 0 0 1 1 0 1 0 0 0 0 2 2 1
0 1 1 2 1 1 0 1 1 1 1 1 1 0 1 0 0 0 0 0 0 0 0 0 0 0 0 0 0 1 1 0 1 1 1 1 0 1 1 0 1 1 2
1 0 3 2 4 4 2 2 2 1 2 3 1 1 0 0 0 0 0 0 1 1 1 1 1 0 0 0 2 1 2 2 2 1 1 2 1 2 1 1 2 1 0
2 2 2 2 4 4 5 3 3 4 2 2 4 3 1 1 0 0 0 0 1 2 3 2 2 2 0 0 1 2 2 2 4 3 1 1 2 1 0 0 1 0 0
0 2 2 1 0 2 2 5 3 2 3 0 2 4 2 2 0 0 0 0 1 2 2 2 5 1 3 1 0 0 1 1 0 0 0 0 0 0 1 0 0 0 0
1 1 1 1 2 0 0 2 2 2 1 1 4 4 4 2 1 0 2 3 2 2 3 3 1 1 1 5 0 0 0 0 0 1 1 0 0 0 0 0 0 0 0
0 1 0 1 2 1 0 0 3 1 3 5 3 5 3 1 3 3 1 1 2 3 3 3 0 3 3 0 0 1 2 0 0 0 0 0 0 0 1 0 0 0 0
2 4 3 2 4 2 0 0 1 2 4 3 3 3 3 3 1 2 1 0 2 2 0 2 2 1 3 0 4 3 0 0 0 1 1 4 3 1 0 0 0 0 0
0 0 0 1 0 1 1 1 0 0 1 2 5 3 2 1 0 0 1 0 0 1 0 0 0 1 0 0 0 0 0 1 0 1 3 1 0 0 0 0 0 0 0
0 0 0 0 0 1 3 2 3 2 1 2 2 2 2 1 0 1 0 0 0 0 2 0 0 0 0 0 0 0 0 0 0 0 0 0 0 0 0 0 0 0 0
1 1 3 1 0 1 2 3 5 3 4 2 3 1 0 2 1 0 0 0 0 3 0 0 0 0 0 0 0 0 0 0 0 0 0 0 0 0 0 0 0 0 0
4 3 0 1 2 8 1 1 2 0 0 1 2 2 2 1 0 0 0 0 0 0 0 0 0 0 0 0 0 0 0 0 0 0 0 0 0 0 0 0 0 0 0
1 0 3 5 5 4 5 7 3 7 0 0 0 0 0 1 0 0 0 0 0 0 0 0 0 0 0 0 0 0 0 0 0 0 0 0 0 0 0 0 0 0 0
7 12 4 3 4 7 5 5 2 0 1 0 1 0 0 1 1 1 0 0 0 0 0 0 0 0 0 0 0 0 0 0 0 0 0 0 0 0 0 0 0 0 0
0 0 3 8 6 1 0 0 0 0 0 0 0 0 0 0 0 0 0 0 0 0 0 0 0 0 0 0 0 0 0 0 0 0 0 0 0 0 0 0 0 0 0
9 1 0 1 0 1 1 0 0 0 0 0 0 0 0 0 0 0 0 0 0 0 0 0 0 0 0 0 0 0 0 0 0 0 0 0 0 0 0 0 0 0 0
1 1 0 0 0 0 0 0 0 0 0 0 0 0 0 0 0 0 0 0 0 0 0 0 0 0 0 0 0 0 0 0 0 0 0 0 0 0 0 0 0 0 0
0 1 1 0 0 0 0 0 0 0 0 0 0 0 0 0 0 0 0 0 0 0 0 0 0 0 0 0 0 0 0 0 0 0 0 0 0 0 0 0 0 0 0
0 3 0 0 0 0 0 0 0 0 0 0 0 0 0 0 0 0 0 0 0 0 0 0 0 0 0 0 0 0 0 0 0 0 0 0 0 0 0 0 0 0 0
0 2 0 0 0 2 3 0 0 0 0 0 0 0 0 0 0 0 0 0 0 0 0 0 0 0 0 0 0 0 0 0 0 0 0 0 0 0 0 0 0 0 0
0 0 1 1 1 0 0 0 0 0 0 0 0 0 0 0 0 0 0 0 0 0 0 0 0 0 0 0 0 0 0 0 0 0 0 0 0 0 0 0 0 0 0